Location: Bow
(51.5261°N, 0.0167°W)
Time: 13:51:24
(UTC+00:00)

Meteor 2-11 Rocket - Pass Details

Date: 18 September 2020
Orbit: 939 x 957 km, 82.5° (Epoch: 25 October)

Event Time Altitude Azimuth Distance (km) Brightness Sun altitude
Rises 18:45:01 0° 181° (S) 3,621 7.4 -6.7°
Reaches altitude 10° 18:47:30 10° 180° (S) 2,681 6.7 -7.1°
Maximum altitude 18:53:37 74° 97° (E) 999 4.4 -8.1°
Drops below altitude 10° 18:59:47 10° 14° (NNE) 2,702 6.8 -9.0°
Sets 19:02:17 0° 12° (NNE) 3,651 7.5 -9.4°
